| time (UTC) | temp C | wind direction | speed KPH | gust KPH | rain 1hr cm | rain 24hr cm | rain mn cm | humidity % | barometer mb |
| 20260510120037 | 20 | 274 | 0.0 | 3.2 | 0.00 | 0.00 | 0.00 | 94 | 1016.0 |
| 20260510115524 | 20 | 0 | 1.6 | 3.2 | 0.00 | 0.00 | 0.00 | 94 | 1015.9 |
| 20260510115025 | 20 | 266 | 0.0 | 3.2 | 0.00 | 0.00 | 0.00 | 94 | 1015.9 |
| 20260510114541 | 20 | 248 | 0.0 | 1.6 | 0.00 | 0.00 | 0.00 | 94 | 1016.0 |
| 20260510114024 | 20 | 0 | 0.0 | 3.2 | 0.00 | 0.00 | 0.00 | 94 | 1016.0 |
| 20260510113524 | 20 | 0 | 0.0 | 3.2 | 0.00 | 0.00 | 0.00 | 94 | 1015.9 |
| 20260510113039 | 20 | 0 | 0.0 | 3.2 | 0.00 | 0.00 | 0.00 | 94 | 1015.8 |
| 20260510112525 | 20 | 259 | 0.0 | 3.2 | 0.00 | 0.00 | 0.00 | 94 | 1015.8 |
| 20260510112025 | 20 | 265 | 0.0 | 3.2 | 0.00 | 0.00 | 0.00 | 94 | 1015.8 |
| 20260510111534 | 20 | 268 | 1.6 | 3.2 | 0.00 | 0.00 | 0.00 | 94 | 1015.7 |
| 20260510111024 | 20 | 238 | 0.0 | 4.8 | 0.00 | 0.00 | 0.00 | 94 | 1015.6 |
| 20260510110524 | 20 | 239 | 1.6 | 4.8 | 0.00 | 0.00 | 0.00 | 94 | 1015.5 |
| 20260510110036 | 20 | 238 | 3.2 | 4.8 | 0.00 | 0.00 | 0.00 | 94 | 1015.5 |
| 20260510105524 | 20 | 222 | 0.0 | 3.2 | 0.00 | 0.00 | 0.00 | 94 | 1015.3 |
| 20260510105025 | 20 | 240 | 1.6 | 3.2 | 0.00 | 0.00 | 0.00 | 94 | 1015.3 |
| 20260510104539 | 20 | 271 | 1.6 | 4.8 | 0.00 | 0.00 | 0.00 | 94 | 1015.3 |
| 20260510104027 | 20 | 264 | 1.6 | 4.8 | 0.00 | 0.00 | 0.00 | 94 | 1015.4 |
| 20260510103524 | 20 | 270 | 1.6 | 3.2 | 0.00 | 0.00 | 0.00 | 95 | 1015.3 |
| 20260510103043 | 20 | 271 | 0.0 | 3.2 | 0.00 | 0.00 | 0.00 | 95 | 1015.4 |
| 20260510102525 | 20 | 259 | 0.0 | 1.6 | 0.00 | 0.00 | 0.00 | 95 | 1015.2 |
| 20260510102026 | 20 | 238 | 0.0 | 1.6 | 0.00 | 0.00 | 0.00 | 94 | 1015.0 |
| 20260510101539 | 20 | 0 | 0.0 | 1.6 | 0.00 | 0.00 | 0.00 | 94 | 1014.8 |
| 20260510101024 | 20 | 0 | 0.0 | 1.6 | 0.00 | 0.00 | 0.00 | 94 | 1014.6 |
| 20260510100525 | 20 | 0 | 0.0 | 1.6 | 0.00 | 0.00 | 0.00 | 94 | 1014.3 |
| 20260510100048 | 20 | 0 | 0.0 | 4.8 | 0.00 | 0.00 | 0.00 | 94 | 1014.2 |
| 20260510095525 | 20 | 244 | 1.6 | 4.8 | 0.00 | 0.00 | 0.00 | 95 | 1014.2 |
| 20260510095028 | 20 | 275 | 1.6 | 3.2 | 0.00 | 0.00 | 0.00 | 94 | 1014.1 |
| 20260510094538 | 20 | 0 | 0.0 | 3.2 | 0.00 | 0.00 | 0.00 | 95 | 1013.8 |
| 20260510094024 | 20 | 229 | 1.6 | 3.2 | 0.00 | 0.00 | 0.00 | 95 | 1013.7 |
| 20260510093524 | 20 | 198 | 0.0 | 3.2 | 0.00 | 0.00 | 0.00 | 95 | 1013.6 |
| 20260510093045 | 20 | 224 | 0.0 | 3.2 | 0.00 | 0.00 | 0.00 | 95 | 1013.6 |
| 20260510092525 | 20 | 193 | 0.0 | 4.8 | 0.00 | 0.00 | 0.00 | 95 | 1013.5 |
| 20260510092024 | 20 | 210 | 1.6 | 4.8 | 0.00 | 0.00 | 0.00 | 95 | 1013.5 |
| 20260510091543 | 20 | 219 | 1.6 | 4.8 | 0.00 | 0.00 | 0.00 | 95 | 1013.6 |
| 20260510091024 | 20 | 227 | 1.6 | 4.8 | 0.00 | 0.00 | 0.00 | 95 | 1013.7 |
| 20260510090524 | 20 | 231 | 0.0 | 6.4 | 0.00 | 0.00 | 0.00 | 95 | 1013.6 |
| 20260510090037 | 20 | 226 | 3.2 | 6.4 | 0.00 | 0.00 | 0.00 | 95 | 1013.7 |
| 20260510085527 | 20 | 232 | 3.2 | 6.4 | 0.00 | 0.00 | 0.00 | 95 | 1013.7 |
| 20260510085026 | 20 | 238 | 1.6 | 6.4 | 0.00 | 0.00 | 0.00 | 95 | 1013.6 |
| 20260510084537 | 20 | 241 | 3.2 | 8.0 | 0.00 | 0.00 | 0.00 | 95 | 1013.6 |
| 20260510084026 | 20 | 236 | 4.8 | 8.0 | 0.00 | 0.00 | 0.00 | 95 | 1013.6 |
| 20260510083528 | 20 | 220 | 3.2 | 8.0 | 0.00 | 0.00 | 0.00 | 95 | 1013.6 |
| 20260510083043 | 20 | 215 | 3.2 | 8.0 | 0.00 | 0.00 | 0.00 | 95 | 1013.5 |
| 20260510082526 | 20 | 196 | 3.2 | 8.0 | 0.00 | 0.00 | 0.00 | 95 | 1013.4 |
| 20260510082026 | 20 | 214 | 3.2 | 8.0 | 0.00 | 0.00 | 0.00 | 95 | 1013.5 |
| 20260510081539 | 20 | 208 | 4.8 | 6.4 | 0.00 | 0.00 | 0.00 | 96 | 1013.4 |
| 20260510081027 | 19 | 196 | 3.2 | 6.4 | 0.00 | 0.00 | 0.00 | 96 | 1013.4 |
| 20260510080526 | 19 | 202 | 1.6 | 6.4 | 0.00 | 0.00 | 0.00 | 96 | 1013.3 |
| 20260510080037 | 19 | 181 | 1.6 | 4.8 | 0.00 | 0.00 | 0.00 | 96 | 1013.3 |
| 20260510075526 | 18 | 171 | 1.6 | 4.8 | 0.00 | 0.43 | 0.00 | 96 | 1013.2 |
| 20260510075027 | 18 | 150 | 1.6 | 4.8 | 0.00 | 0.43 | 0.00 | 96 | 1013.2 |
| 20260510074535 | 18 | 0 | 0.0 | 0.0 | 0.00 | 0.43 | 0.00 | 94 | 1013.1 |
| 20260510074026 | 18 | 0 | 0.0 | 0.0 | 0.00 | 0.43 | 0.00 | 94 | 1013.1 |
| 20260510073526 | 18 | 0 | 0.0 | 0.0 | 0.00 | 0.43 | 0.00 | 94 | 1013.2 |
| 20260510073039 | 18 | 0 | 0.0 | 0.0 | 0.00 | 0.43 | 0.00 | 94 | 1013.1 |
| 20260510072525 | 18 | 0 | 0.0 | 0.0 | 0.00 | 0.43 | 0.00 | 94 | 1013.0 |
| 20260510072025 | 18 | 0 | 0.0 | 0.0 | 0.00 | 0.43 | 0.00 | 93 | 1013.0 |
| 20260510071551 | 18 | 0 | 0.0 | 0.0 | 0.00 | 0.43 | 0.00 | 93 | 1013.0 |
| 20260510071026 | 18 | 0 | 0.0 | 0.0 | 0.00 | 0.43 | 0.00 | 94 | 1012.9 |
| 20260510070527 | 18 | 0 | 0.0 | 1.6 | 0.00 | 0.43 | 0.00 | 94 | 1012.8 |
| 20260510070040 | 18 | 0 | 0.0 | 1.6 | 0.00 | 0.43 | 0.00 | 94 | 1012.8 |
| 20260510065527 | 18 | 0 | 0.0 | 1.6 | 0.00 | 0.46 | 0.00 | 94 | 1012.8 |
| 20260510065026 | 18 | 0 | 0.0 | 1.6 | 0.00 | 0.46 | 0.00 | 94 | 1012.8 |
| 20260510064535 | 18 | 0 | 0.0 | 1.6 | 0.00 | 0.46 | 0.00 | 95 | 1012.8 |
| 20260510064026 | 18 | 0 | 0.0 | 1.6 | 0.00 | 0.46 | 0.00 | 94 | 1012.8 |
| 20260510063530 | 18 | 0 | 0.0 | 1.6 | 0.00 | 0.46 | 0.00 | 94 | 1012.9 |
| 20260510063037 | 18 | 0 | 0.0 | 0.0 | 0.00 | 0.46 | 0.00 | 95 | 1012.9 |
| 20260510062522 | 18 | 0 | 0.0 | 1.6 | 0.00 | 0.46 | 0.00 | 94 | 1012.9 |
| 20260510062022 | 18 | 0 | 0.0 | 1.6 | 0.00 | 0.46 | 0.00 | 94 | 1012.9 |
| 20260510061546 | 18 | 0 | 0.0 | 1.6 | 0.00 | 0.46 | 0.00 | 94 | 1013.0 |
| 20260510061022 | 18 | 0 | 0.0 | 0.0 | 0.00 | 0.46 | 0.00 | 93 | 1013.1 |
| 20260510060522 | 18 | 0 | 0.0 | 0.0 | 0.00 | 0.46 | 0.00 | 94 | 1013.1 |
| 20260510060036 | 18 | 0 | 0.0 | 0.0 | 0.00 | 0.46 | 0.00 | 94 | 1013.1 |
| 20260510055524 | 18 | 0 | 0.0 | 0.0 | 0.00 | 0.48 | 0.00 | 93 | 1013.1 |
| 20260510055025 | 18 | 0 | 0.0 | 0.0 | 0.00 | 0.48 | 0.00 | 94 | 1013.1 |
| 20260510054542 | 18 | 0 | 0.0 | 0.0 | 0.00 | 0.48 | 0.00 | 94 | 1013.1 |
| 20260510054024 | 18 | 0 | 0.0 | 1.6 | 0.00 | 0.48 | 0.00 | 94 | 1013.1 |
| 20260510053523 | 18 | 0 | 0.0 | 1.6 | 0.00 | 0.48 | 0.00 | 94 | 1013.1 |
| 20260510053038 | 18 | 0 | 0.0 | 1.6 | 0.00 | 0.48 | 0.00 | 94 | 1013.1 |
| 20260510052530 | 18 | 0 | 0.0 | 0.0 | 0.00 | 0.48 | 0.00 | 94 | 1013.1 |
| 20260510052024 | 18 | 0 | 0.0 | 0.0 | 0.00 | 0.48 | 0.00 | 94 | 1013.1 |
| 20260510051535 | 18 | 0 | 0.0 | 0.0 | 0.00 | 0.48 | 0.00 | 94 | 1013.1 |
| 20260510051025 | 17 | 0 | 0.0 | 0.0 | 0.00 | 0.48 | 0.00 | 94 | 1013.1 |
| 20260510050526 | 17 | 0 | 0.0 | 0.0 | 0.00 | 0.48 | 0.00 | 93 | 1013.1 |
| 20260510050038 | 17 | 0 | 0.0 | 0.0 | 0.00 | 0.48 | 0.00 | 93 | 1013.0 |
| 20260510045527 | 18 | 0 | 0.0 | 0.0 | 0.00 | 0.81 | 0.48 | 94 | 1013.0 |
| 20260510045024 | 17 | 0 | 0.0 | 0.0 | 0.00 | 0.81 | 0.48 | 93 | 1013.0 |
| 20260510044537 | 17 | 0 | 0.0 | 0.0 | 0.00 | 0.81 | 0.48 | 93 | 1013.1 |
| 20260510044027 | 18 | 0 | 0.0 | 0.0 | 0.00 | 0.81 | 0.48 | 93 | 1013.0 |
| 20260510043526 | 18 | 0 | 0.0 | 0.0 | 0.00 | 0.81 | 0.48 | 93 | 1013.0 |
| 20260510043038 | 18 | 0 | 0.0 | 0.0 | 0.00 | 0.81 | 0.48 | 93 | 1013.1 |
| 20260510042525 | 18 | 0 | 0.0 | 0.0 | 0.00 | 0.81 | 0.48 | 93 | 1013.0 |
| 20260510042027 | 18 | 0 | 0.0 | 0.0 | 0.00 | 0.81 | 0.48 | 93 | 1013.1 |
| 20260510041540 | 18 | 0 | 0.0 | 0.0 | 0.00 | 0.81 | 0.48 | 92 | 1013.2 |
| 20260510041025 | 18 | 0 | 0.0 | 0.0 | 0.00 | 0.81 | 0.48 | 92 | 1013.3 |
| 20260510040525 | 18 | 0 | 0.0 | 0.0 | 0.00 | 0.81 | 0.48 | 92 | 1013.3 |
| 20260510040039 | 18 | 0 | 0.0 | 1.6 | 0.00 | 0.81 | 0.48 | 92 | 1013.3 |
| 20260510035524 | 18 | 0 | 0.0 | 1.6 | 0.00 | 0.81 | 0.48 | 92 | 1013.4 |
| 20260510035027 | 18 | 0 | 0.0 | 1.6 | 0.00 | 0.81 | 0.48 | 92 | 1013.2 |
| 20260510034540 | 18 | 116 | 0.0 | 1.6 | 0.00 | 0.81 | 0.48 | 92 | 1013.2 |
| 20260510034025 | 18 | 0 | 0.0 | 1.6 | 0.00 | 0.81 | 0.48 | 92 | 1013.2 |
| 20260510033524 | 18 | 0 | 0.0 | 1.6 | 0.00 | 0.81 | 0.48 | 92 | 1013.3 |
| 20260510033046 | 18 | 0 | 0.0 | 1.6 | 0.00 | 0.81 | 0.48 | 92 | 1013.4 |
| 20260510032524 | 18 | 0 | 0.0 | 1.6 | 0.00 | 0.81 | 0.48 | 92 | 1013.3 |
| 20260510032024 | 18 | 0 | 0.0 | 1.6 | 0.00 | 0.81 | 0.48 | 92 | 1013.3 |
| 20260510031600 | 19 | 0 | 0.0 | 0.0 | 0.00 | 0.81 | 0.48 | 92 | 1013.3 |
| 20260510031024 | 19 | 0 | 0.0 | 0.0 | 0.00 | 0.81 | 0.48 | 92 | 1013.3 |
| 20260510030524 | 18 | 0 | 0.0 | 1.6 | 0.00 | 0.81 | 0.48 | 92 | 1013.3 |
| 20260510030040 | 19 | 0 | 0.0 | 1.6 | 0.00 | 0.81 | 0.48 | 92 | 1013.3 |
| 20260510025524 | 18 | 0 | 0.0 | 1.6 | 0.00 | 0.81 | 0.48 | 92 | 1013.3 |
| 20260510025026 | 18 | 0 | 0.0 | 0.0 | 0.00 | 0.81 | 0.48 | 92 | 1013.3 |
| 20260510024544 | 18 | 0 | 0.0 | 0.0 | 0.00 | 0.81 | 0.48 | 93 | 1013.3 |
| 20260510024025 | 18 | 0 | 0.0 | 0.0 | 0.00 | 0.81 | 0.48 | 92 | 1013.3 |
| 20260510023525 | 18 | 0 | 0.0 | 0.0 | 0.00 | 0.81 | 0.48 | 92 | 1013.2 |
| 20260510023035 | 18 | 0 | 0.0 | 0.0 | 0.00 | 0.81 | 0.48 | 92 | 1013.2 |
| 20260510022527 | 18 | 0 | 0.0 | 0.0 | 0.00 | 0.81 | 0.48 | 92 | 1013.1 |
| 20260510022027 | 19 | 0 | 0.0 | 0.0 | 0.00 | 0.81 | 0.48 | 92 | 1013.0 |
| 20260510021537 | 19 | 0 | 0.0 | 0.0 | 0.00 | 0.81 | 0.48 | 92 | 1013.1 |
| 20260510021026 | 19 | 0 | 0.0 | 0.0 | 0.00 | 0.81 | 0.48 | 92 | 1012.9 |
| 20260510020526 | 19 | 0 | 0.0 | 0.0 | 0.00 | 0.81 | 0.48 | 91 | 1012.8 |
| 20260510020037 | 20 | 0 | 0.0 | 0.0 | 0.00 | 0.81 | 0.48 | 91 | 1012.8 |
| 20260510015526 | 20 | 0 | 0.0 | 0.0 | 0.00 | 0.81 | 0.48 | 91 | 1012.9 |
| 20260510015026 | 20 | 0 | 0.0 | 0.0 | 0.00 | 0.81 | 0.48 | 91 | 1012.8 |
| 20260510014542 | 20 | 0 | 0.0 | 0.0 | 0.00 | 0.81 | 0.48 | 90 | 1012.8 |
| 20260510014023 | 20 | 0 | 0.0 | 0.0 | 0.00 | 0.81 | 0.48 | 88 | 1012.7 |
| 20260510013526 | 21 | 0 | 0.0 | 0.0 | 0.00 | 0.81 | 0.48 | 87 | 1012.6 |
| 20260510013040 | 21 | 0 | 0.0 | 0.0 | 0.00 | 0.81 | 0.48 | 87 | 1012.4 |
| 20260510012524 | 21 | 0 | 0.0 | 0.0 | 0.00 | 0.81 | 0.48 | 87 | 1012.4 |
| 20260510012024 | 21 | 0 | 0.0 | 0.0 | 0.00 | 0.81 | 0.48 | 87 | 1012.4 |
| 20260510011546 | 21 | 0 | 0.0 | 4.8 | 0.00 | 0.81 | 0.48 | 87 | 1012.1 |
| 20260510011027 | 21 | 0 | 0.0 | 4.8 | 0.00 | 0.81 | 0.48 | 86 | 1012.1 |
| 20260510010526 | 22 | 169 | 1.6 | 4.8 | 0.00 | 0.81 | 0.48 | 85 | 1012.1 |
| 20260510010038 | 22 | 167 | 1.6 | 6.4 | 0.00 | 0.81 | 0.48 | 85 | 1012.1 |
| 20260510005528 | 22 | 167 | 1.6 | 6.4 | 0.00 | 0.81 | 0.48 | 84 | 1012.0 |
| 20260510005026 | 22 | 167 | 3.2 | 8.0 | 0.00 | 0.81 | 0.48 | 83 | 1011.9 |
| 20260510004534 | 22 | 172 | 4.8 | 8.0 | 0.00 | 0.81 | 0.48 | 81 | 1011.7 |
| 20260510004026 | 23 | 160 | 3.2 | 6.4 | 0.00 | 0.81 | 0.48 | 80 | 1011.6 |
| 20260510003526 | 23 | 170 | 1.6 | 4.8 | 0.00 | 0.81 | 0.48 | 78 | 1011.5 |
| 20260510003059 | 23 | 136 | 1.6 | 8.0 | 0.00 | 0.81 | 0.48 | 77 | 1011.6 |
| 20260510002527 | 23 | 163 | 3.2 | 8.0 | 0.00 | 0.81 | 0.48 | 77 | 1011.5 |
| 20260510002026 | 24 | 173 | 4.8 | 8.0 | 0.00 | 0.81 | 0.48 | 75 | 1011.5 |
| 20260510001539 | 24 | 160 | 3.2 | 8.0 | 0.00 | 0.81 | 0.48 | 75 | 1011.4 |
| 20260510001024 | 24 | 146 | 3.2 | 8.0 | 0.00 | 0.81 | 0.48 | 74 | 1011.3 |
| 20260510000524 | 25 | 122 | 1.6 | 9.7 | 0.00 | 0.81 | 0.48 | 72 | 1011.2 |
| 20260510000045 | 25 | 137 | 3.2 | 9.7 | 0.00 | 0.81 | 0.48 | 72 | 1011.1 |
| 20260509235523 | 25 | 149 | 3.2 | 9.7 | 0.00 | 0.81 | 0.48 | 71 | 1011.0 |
| 20260509235025 | 25 | 108 | 3.2 | 9.7 | 0.00 | 0.81 | 0.48 | 71 | 1011.1 |
| 20260509234556 | 25 | 136 | 4.8 | 9.7 | 0.00 | 0.81 | 0.48 | 70 | 1010.8 |
| 20260509234023 | 25 | 150 | 3.2 | 9.7 | 0.00 | 0.81 | 0.48 | 70 | 1010.8 |
| 20260509233522 | 25 | 139 | 4.8 | 9.7 | 0.00 | 0.81 | 0.48 | 70 | 1010.8 |
| 20260509233035 | 25 | 0 | 0.0 | 8.0 | 0.00 | 0.81 | 0.48 | 70 | 1010.8 |
| 20260509232523 | 25 | 89 | 3.2 | 8.0 | 0.00 | 0.81 | 0.48 | 69 | 1010.9 |
| 20260509232024 | 25 | 94 | 1.6 | 6.4 | 0.00 | 0.81 | 0.48 | 69 | 1010.8 |
| 20260509231548 | 25 | 146 | 3.2 | 9.7 | 0.00 | 0.81 | 0.48 | 70 | 1010.8 |
| 20260509231024 | 25 | 148 | 3.2 | 9.7 | 0.00 | 0.81 | 0.48 | 69 | 1010.8 |
| 20260509230523 | 25 | 160 | 4.8 | 9.7 | 0.00 | 0.81 | 0.48 | 69 | 1010.7 |
| 20260509230036 | 25 | 145 | 1.6 | 6.4 | 0.00 | 0.81 | 0.48 | 72 | 1010.8 |
| 20260509225527 | 25 | 191 | 1.6 | 16.1 | 0.00 | 0.81 | 0.48 | 69 | 1010.9 |
| 20260509225024 | 25 | 124 | 4.8 | 16.1 | 0.00 | 0.81 | 0.48 | 70 | 1010.8 |
| 20260509224536 | 26 | 103 | 4.8 | 16.1 | 0.00 | 0.81 | 0.48 | 69 | 1010.9 |
| 20260509224023 | 26 | 193 | 4.8 | 9.7 | 0.00 | 0.81 | 0.48 | 68 | 1010.9 |
| 20260509223521 | 25 | 0 | 1.6 | 9.7 | 0.00 | 0.81 | 0.48 | 70 | 1010.9 |
| 20260509223036 | 25 | 161 | 1.6 | 9.7 | 0.00 | 0.81 | 0.48 | 71 | 1010.9 |
| 20260509222521 | 25 | 165 | 1.6 | 8.0 | 0.00 | 0.81 | 0.48 | 70 | 1010.7 |
| 20260509222024 | 25 | 98 | 1.6 | 8.0 | 0.00 | 0.81 | 0.48 | 71 | 1010.7 |
| 20260509221541 | 25 | 91 | 3.2 | 8.0 | 0.00 | 0.81 | 0.48 | 69 | 1010.7 |
| 20260509221023 | 25 | 0 | 1.6 | 6.4 | 0.00 | 0.81 | 0.48 | 68 | 1010.7 |
| 20260509220523 | 25 | 132 | 1.6 | 6.4 | 0.00 | 0.81 | 0.48 | 66 | 1010.7 |
| 20260509220038 | 26 | 0 | 1.6 | 6.4 | 0.00 | 0.81 | 0.48 | 68 | 1010.6 |
| 20260509215525 | 26 | 0 | 0.0 | 8.0 | 0.00 | 0.81 | 0.48 | 68 | 1010.8 |
| 20260509215023 | 25 | 143 | 1.6 | 8.0 | 0.00 | 0.81 | 0.48 | 69 | 1010.8 |
| 20260509214538 | 25 | 99 | 1.6 | 8.0 | 0.00 | 0.81 | 0.48 | 70 | 1010.7 |
| 20260509214022 | 26 | 162 | 3.2 | 6.4 | 0.00 | 0.81 | 0.48 | 70 | 1010.9 |
| 20260509213524 | 25 | 0 | 1.6 | 8.0 | 0.00 | 0.81 | 0.48 | 68 | 1010.8 |
| 20260509213041 | 25 | 70 | 3.2 | 8.0 | 0.00 | 0.81 | 0.48 | 69 | 1010.8 |
| 20260509212525 | 25 | 101 | 1.6 | 8.0 | 0.00 | 0.81 | 0.48 | 70 | 1010.8 |
| 20260509212024 | 25 | 79 | 1.6 | 6.4 | 0.00 | 0.81 | 0.48 | 71 | 1010.8 |
| 20260509211539 | 25 | 58 | 3.2 | 6.4 | 0.00 | 0.81 | 0.48 | 71 | 1010.8 |
| 20260509211021 | 25 | 66 | 0.0 | 4.8 | 0.00 | 0.81 | 0.48 | 71 | 1010.9 |
| 20260509210521 | 25 | 0 | 0.0 | 6.4 | 0.00 | 0.81 | 0.48 | 72 | 1011.0 |
| 20260509210036 | 25 | 164 | 1.6 | 6.4 | 0.00 | 0.81 | 0.48 | 74 | 1011.0 |
| 20260509205525 | 25 | 0 | 3.2 | 6.4 | 0.00 | 0.81 | 0.48 | 73 | 1011.0 |
| 20260509205026 | 25 | 91 | 3.2 | 6.4 | 0.00 | 0.81 | 0.48 | 73 | 1010.9 |
| 20260509204541 | 25 | 146 | 1.6 | 6.4 | 0.00 | 0.81 | 0.48 | 73 | 1011.1 |
| 20260509204027 | 25 | 89 | 1.6 | 6.4 | 0.00 | 0.81 | 0.48 | 73 | 1011.2 |
| 20260509203526 | 25 | 131 | 1.6 | 6.4 | 0.00 | 0.81 | 0.48 | 73 | 1011.1 |
| 20260509203039 | 25 | 145 | 1.6 | 6.4 | 0.00 | 0.81 | 0.48 | 73 | 1011.2 |
| 20260509202525 | 25 | 0 | 0.0 | 6.4 | 0.00 | 0.81 | 0.48 | 73 | 1011.3 |
| 20260509202024 | 25 | 129 | 3.2 | 6.4 | 0.00 | 0.81 | 0.48 | 73 | 1011.4 |
| 20260509201538 | 25 | 75 | 0.0 | 6.4 | 0.00 | 0.81 | 0.48 | 73 | 1011.4 |
| 20260509201024 | 25 | 100 | 0.0 | 6.4 | 0.00 | 0.81 | 0.48 | 73 | 1011.2 |
| 20260509200527 | 25 | 115 | 0.0 | 6.4 | 0.00 | 0.81 | 0.48 | 74 | 1011.4 |
| 20260509200037 | 24 | 93 | 1.6 | 8.0 | 0.00 | 0.81 | 0.48 | 72 | 1011.5 |
| 20260509195525 | 24 | 89 | 3.2 | 8.0 | 0.00 | 0.81 | 0.48 | 72 | 1011.3 |
| 20260509195026 | 25 | 75 | 0.0 | 4.8 | 0.00 | 0.81 | 0.48 | 73 | 1011.3 |
| 20260509194538 | 24 | 129 | 0.0 | 8.0 | 0.00 | 0.81 | 0.48 | 71 | 1011.4 |
| 20260509194024 | 24 | 83 | 1.6 | 8.0 | 0.00 | 0.81 | 0.48 | 71 | 1011.5 |
| 20260509193524 | 25 | 92 | 0.0 | 8.0 | 0.00 | 0.81 | 0.48 | 72 | 1011.3 |
| 20260509193042 | 25 | 82 | 3.2 | 11.3 | 0.00 | 0.81 | 0.48 | 71 | 1011.4 |
| 20260509192525 | 25 | 0 | 3.2 | 11.3 | 0.00 | 0.81 | 0.48 | 70 | 1011.3 |
| 20260509192025 | 25 | 153 | 3.2 | 8.0 | 0.00 | 0.81 | 0.48 | 73 | 1011.3 |
| 20260509191539 | 25 | 59 | 4.8 | 8.0 | 0.00 | 0.81 | 0.48 | 72 | 1011.2 |
| 20260509191028 | 25 | 72 | 1.6 | 9.7 | 0.00 | 0.81 | 0.48 | 71 | 1011.3 |
| 20260509190524 | 24 | 354 | 4.8 | 9.7 | 0.00 | 0.81 | 0.48 | 71 | 1011.3 |
| 20260509190041 | 25 | 86 | 3.2 | 11.3 | 0.00 | 0.81 | 0.48 | 70 | 1011.4 |
| 20260509185525 | 25 | 108 | 4.8 | 11.3 | 0.00 | 0.81 | 0.48 | 70 | 1011.4 |
| 20260509185025 | 25 | 0 | 0.0 | 8.0 | 0.00 | 0.81 | 0.48 | 71 | 1011.4 |
| 20260509184538 | 25 | 37 | 1.6 | 12.9 | 0.00 | 0.81 | 0.48 | 71 | 1011.3 |
| 20260509184024 | 25 | 153 | 3.2 | 12.9 | 0.00 | 0.81 | 0.48 | 73 | 1011.5 |
| 20260509183525 | 25 | 167 | 4.8 | 11.3 | 0.00 | 0.81 | 0.48 | 72 | 1011.5 |
| 20260509183050 | 25 | 0 | 1.6 | 11.3 | 0.00 | 0.81 | 0.48 | 70 | 1011.7 |
| 20260509182524 | 25 | 307 | 4.8 | 11.3 | 0.00 | 0.81 | 0.48 | 71 | 1011.7 |
| 20260509182024 | 24 | 175 | 3.2 | 9.7 | 0.00 | 0.81 | 0.48 | 74 | 1011.8 |
| 20260509181545 | 24 | 80 | 3.2 | 12.9 | 0.00 | 0.81 | 0.48 | 73 | 1011.8 |
| 20260509181024 | 24 | 113 | 8.0 | 12.9 | 0.00 | 0.81 | 0.48 | 75 | 1011.9 |
| 20260509180525 | 24 | 162 | 8.0 | 12.9 | 0.00 | 0.81 | 0.48 | 73 | 1011.9 |
| 20260509180037 | 23 | 0 | 1.6 | 12.9 | 0.00 | 0.81 | 0.48 | 74 | 1011.9 |
| 20260509175524 | 23 | 151 | 3.2 | 12.9 | 0.00 | 0.81 | 0.48 | 74 | 1012.1 |
| 20260509175025 | 23 | 72 | 3.2 | 12.9 | 0.00 | 0.81 | 0.48 | 75 | 1012.0 |
| 20260509174539 | 23 | 134 | 3.2 | 9.7 | 0.00 | 0.81 | 0.48 | 77 | 1012.1 |
| 20260509174025 | 23 | 131 | 3.2 | 9.7 | 0.00 | 0.81 | 0.48 | 75 | 1012.2 |
| 20260509173524 | 23 | 0 | 0.0 | 9.7 | 0.00 | 0.81 | 0.48 | 77 | 1012.4 |
| 20260509173035 | 23 | 93 | 6.4 | 9.7 | 0.00 | 0.81 | 0.48 | 76 | 1012.8 |
| 20260509172525 | 23 | 53 | 3.2 | 11.3 | 0.00 | 0.81 | 0.48 | 74 | 1012.6 |
| 20260509172025 | 23 | 144 | 3.2 | 11.3 | 0.00 | 0.81 | 0.48 | 75 | 1012.6 |
| 20260509171540 | 23 | 142 | 3.2 | 11.3 | 0.00 | 0.81 | 0.48 | 77 | 1012.5 |
| 20260509171024 | 23 | 136 | 1.6 | 8.0 | 0.00 | 0.81 | 0.48 | 78 | 1012.5 |
| 20260509170524 | 23 | 133 | 1.6 | 8.0 | 0.00 | 0.81 | 0.48 | 78 | 1012.7 |
| 20260509170038 | 23 | 115 | 1.6 | 9.7 | 0.00 | 0.81 | 0.48 | 77 | 1012.7 |
| 20260509165523 | 23 | 170 | 4.8 | 9.7 | 0.00 | 0.81 | 0.48 | 76 | 1012.8 |
| 20260509165023 | 23 | 44 | 1.6 | 8.0 | 0.00 | 0.81 | 0.48 | 78 | 1012.8 |
| 20260509164537 | 22 | 89 | 3.2 | 8.0 | 0.00 | 0.81 | 0.48 | 78 | 1012.9 |
| 20260509164023 | 22 | 169 | 3.2 | 12.9 | 0.00 | 0.81 | 0.48 | 79 | 1012.8 |
| 20260509163523 | 22 | 124 | 3.2 | 12.9 | 0.00 | 0.81 | 0.48 | 78 | 1012.8 |
| 20260509163039 | 22 | 129 | 3.2 | 11.3 | 0.00 | 0.81 | 0.48 | 79 | 1012.7 |
| 20260509162526 | 22 | 63 | 3.2 | 11.3 | 0.00 | 0.81 | 0.48 | 80 | 1012.7 |
| 20260509162027 | 22 | 34 | 3.2 | 9.7 | 0.00 | 0.81 | 0.48 | 78 | 1012.7 |
| 20260509161539 | 22 | 44 | 4.8 | 9.7 | 0.00 | 0.81 | 0.48 | 78 | 1012.5 |
| 20260509161024 | 22 | 122 | 3.2 | 9.7 | 0.00 | 0.81 | 0.48 | 78 | 1012.6 |
| 20260509160527 | 22 | 96 | 3.2 | 9.7 | 0.00 | 0.81 | 0.48 | 77 | 1012.5 |
| 20260509160037 | 22 | 0 | 1.6 | 8.0 | 0.00 | 0.81 | 0.48 | 81 | 1012.5 |
| 20260509155524 | 22 | 106 | 3.2 | 8.0 | 0.00 | 0.81 | 0.48 | 81 | 1012.6 |
| 20260509155023 | 22 | 67 | 3.2 | 8.0 | 0.00 | 0.81 | 0.48 | 81 | 1012.6 |
| 20260509154538 | 22 | 0 | 3.2 | 8.0 | 0.00 | 0.81 | 0.48 | 83 | 1012.5 |
| 20260509154024 | 22 | 34 | 1.6 | 6.4 | 0.00 | 0.81 | 0.48 | 84 | 1012.5 |
| 20260509153527 | 21 | 78 | 0.0 | 6.4 | 0.00 | 0.81 | 0.48 | 85 | 1012.6 |
| 20260509153037 | 21 | 31 | 1.6 | 6.4 | 0.00 | 0.81 | 0.48 | 87 | 1012.5 |
| 20260509152524 | 21 | 55 | 1.6 | 9.7 | 0.00 | 0.81 | 0.48 | 85 | 1012.5 |
| 20260509152024 | 21 | 51 | 0.0 | 9.7 | 0.00 | 0.81 | 0.48 | 86 | 1012.5 |
| 20260509151539 | 21 | 23 | 4.8 | 9.7 | 0.00 | 0.81 | 0.48 | 85 | 1012.4 |
| 20260509151023 | 21 | 27 | 3.2 | 9.7 | 0.00 | 0.81 | 0.48 | 85 | 1012.1 |
| 20260509150525 | 21 | 77 | 3.2 | 8.0 | 0.00 | 0.81 | 0.48 | 87 | 1012.0 |
| 20260509150037 | 21 | 51 | 3.2 | 8.0 | 0.00 | 0.81 | 0.48 | 87 | 1012.1 |
| 20260509145523 | 21 | 65 | 1.6 | 6.4 | 0.00 | 0.81 | 0.48 | 88 | 1012.2 |
| 20260509145027 | 21 | 360 | 1.6 | 6.4 | 0.00 | 0.81 | 0.48 | 88 | 1012.1 |
| 20260509144541 | 21 | 360 | 1.6 | 6.4 | 0.00 | 0.81 | 0.48 | 89 | 1012.1 |
| 20260509144027 | 20 | 341 | 0.0 | 6.4 | 0.00 | 0.81 | 0.48 | 89 | 1012.1 |
| 20260509143526 | 20 | 0 | 1.6 | 9.7 | 0.00 | 0.81 | 0.48 | 90 | 1012.2 |
| 20260509143039 | 20 | 75 | 1.6 | 9.7 | 0.00 | 0.81 | 0.48 | 90 | 1012.0 |
| 20260509142526 | 20 | 49 | 3.2 | 9.7 | 0.00 | 0.81 | 0.48 | 90 | 1012.1 |
| 20260509142026 | 20 | 297 | 1.6 | 8.0 | 0.00 | 0.81 | 0.48 | 89 | 1011.9 |
| 20260509141537 | 20 | 285 | 3.2 | 8.0 | 0.00 | 0.81 | 0.48 | 90 | 1011.8 |
| 20260509141026 | 20 | 13 | 1.6 | 6.4 | 0.00 | 0.81 | 0.48 | 91 | 1011.9 |
| 20260509140527 | 20 | 33 | 1.6 | 6.4 | 0.00 | 0.81 | 0.48 | 90 | 1012.0 |
| 20260509140038 | 20 | 0 | 0.0 | 3.2 | 0.00 | 0.81 | 0.48 | 92 | 1011.8 |
| 20260509135529 | 20 | 0 | 1.6 | 6.4 | 0.00 | 0.81 | 0.48 | 91 | 1011.8 |
| 20260509135029 | 20 | 0 | 0.0 | 6.4 | 0.00 | 0.81 | 0.48 | 92 | 1011.7 |
| 20260509134538 | 20 | 34 | 0.0 | 4.8 | 0.00 | 0.81 | 0.48 | 92 | 1011.7 |
| 20260509134027 | 20 | 0 | 0.0 | 4.8 | 0.00 | 0.81 | 0.48 | 93 | 1011.8 |
| 20260509133526 | 19 | 0 | 0.0 | 3.2 | 0.00 | 0.81 | 0.48 | 92 | 1011.8 |
| 20260509133038 | 19 | 0 | 0.0 | 3.2 | 0.00 | 0.81 | 0.48 | 92 | 1011.8 |
| 20260509132524 | 19 | 0 | 0.0 | 4.8 | 0.00 | 0.81 | 0.48 | 93 | 1011.6 |
| 20260509132026 | 19 | 0 | 0.0 | 4.8 | 0.00 | 0.81 | 0.48 | 93 | 1011.6 |
| 20260509131537 | 19 | 304 | 1.6 | 4.8 | 0.00 | 0.81 | 0.48 | 93 | 1011.6 |
| 20260509131023 | 19 | 0 | 0.0 | 3.2 | 0.00 | 0.81 | 0.48 | 93 | 1011.4 |
| 20260509130526 | 19 | 58 | 0.0 | 3.2 | 0.00 | 0.81 | 0.48 | 94 | 1011.5 |
| 20260509130040 | 18 | 0 | 0.0 | 6.4 | 0.00 | 0.81 | 0.48 | 94 | 1011.2 |
| 20260509125526 | 18 | 53 | 0.0 | 6.4 | 0.00 | 0.81 | 0.48 | 95 | 1011.0 |
| 20260509125022 | 18 | 35 | 1.6 | 4.8 | 0.00 | 0.81 | 0.48 | 94 | 1011.0 |
| 20260509124538 | 18 | 30 | 1.6 | 4.8 | 0.00 | 0.81 | 0.48 | 94 | 1011.0 |
| 20260509124029 | 18 | 0 | 0.0 | 1.6 | 0.00 | 0.81 | 0.48 | 95 | 1011.3 |
| 20260509123527 | 18 | 0 | 0.0 | 3.2 | 0.00 | 0.81 | 0.48 | 95 | 1011.1 |
| 20260509123035 | 17 | 0 | 0.0 | 3.2 | 0.00 | 0.81 | 0.48 | 95 | 1011.1 |
| 20260509122526 | 17 | 0 | 0.0 | 0.0 | 0.00 | 0.81 | 0.48 | 95 | 1011.1 |
| 20260509122026 | 17 | 0 | 0.0 | 0.0 | 0.00 | 0.81 | 0.48 | 95 | 1011.1 |
| 20260509121538 | 17 | 0 | 0.0 | 0.0 | 0.00 | 0.81 | 0.48 | 95 | 1011.0 |
| 20260509121027 | 17 | 0 | 0.0 | 0.0 | 0.00 | 0.81 | 0.48 | 95 | 1011.0 |
| 20260509120528 | 17 | 0 | 0.0 | 0.0 | 0.00 | 0.81 | 0.48 | 95 | 1011.1 |